Hebron, NE

4:22 AM CST on December 06, 2016 (GMT -0600)
Hebron Municipal

Weather History for KHJH - June, 2013

Change the Weather History Date:

Friday, June 14, 2013

  Actual Average Record
Temperature  
Mean Temperature 82 °F -  
Max Temperature 100 °F 86 °F 102 °F (1953)
Min Temperature 65 °F 61 °F 47 °F (1969)
Cooling Degree Days 18    
Growing Degree Days 32 (Base 50)    
Moisture  
Dew Point 59 °F    
Average Humidity 54    
Maximum Humidity 82    
Minimum Humidity 22    
Precipitation  
Precipitation 0.00 in - - ()
Sea Level Pressure  
Sea Level Pressure 29.89 in    
Wind  
Wind Speed 7 mph (SSE)    
Max Wind Speed 21 mph    
Max Gust Speed 30 mph    
Visibility 10 miles    
Events Thunderstorm    
Averages and records for this station are not official NWS values.
T = Trace of Precipitation, MM = Missing Value Source: NWS Daily Summary

Daily Weather History Graph

Daily Weather History Graph

Search for Another Location

Airport or City:

Trip Planner

Search our weather history database for the weather conditions in past years. The results will help you decide how hot, cold, wet, or windy it might be!

Date:

Astronomy

Jun. 14, 2013 Rise Set
Actual Time 6:00 AM CDT 9:01 PM CDT
Civil Twilight 5:27 AM CDT 9:34 PM CDT
Nautical Twilight 4:45 AM CDT 10:15 PM CDT
Astronomical Twilight 3:56 AM CDT 11:04 PM CDT
Moon 11:37 AM CDT (6/14) 12:07 AM CDT (6/14)
Length of Visible Light 16h 06m
Length of Day
15h 00m
Waxing Crescent, 30% of the Moon is Illuminated
Jun 14
Waxing Crescent
Jun 16
First Quarter
Jun 23
Full
Jun 29
Last Quarter
Jul 8
New

Hourly Weather History & Observations

Time (CDT) Temp. Heat Index Dew Point Humidity Pressure Visibility Wind Dir Wind Speed Gust Speed Precip Events Conditions
12:15 AM 68.0 °F - 58.1 °F 71% 29.99 in 10.0 mi Calm Calm - N/A   Clear
12:35 AM 67.5 °F - 58.3 °F 72% 29.99 in 10.0 mi East 3.5 mph - N/A Thunderstorm Clear
12:55 AM 67.3 °F - 58.1 °F 72% 30.00 in 10.0 mi Calm Calm - N/A   Clear
1:15 AM 67.1 °F - 58.3 °F 73% 30.02 in 10.0 mi Calm Calm - N/A   Clear
1:35 AM 66.4 °F - 58.5 °F 76% 30.02 in 10.0 mi Calm Calm - N/A   Scattered Clouds
1:55 AM 66.7 °F - 58.1 °F 74% 30.02 in 10.0 mi Calm Calm - N/A   Clear
2:15 AM 66.2 °F - 58.3 °F 76% 30.02 in 10.0 mi Calm Calm - N/A   Clear
2:35 AM 66.2 °F - 58.1 °F 75% 30.01 in 10.0 mi East 4.6 mph - N/A   Clear
2:55 AM 65.3 °F - 58.3 °F 78% 30.00 in 10.0 mi East 3.5 mph - N/A   Clear
3:15 AM 65.7 °F - 57.7 °F 76% 29.97 in 10.0 mi ESE 4.6 mph - N/A   Clear
3:35 AM 65.3 °F - 58.1 °F 77% 29.97 in 10.0 mi SE 3.5 mph - N/A   Clear
3:55 AM 65.5 °F - 58.1 °F 77% 29.97 in 10.0 mi SE 3.5 mph - N/A   Scattered Clouds
4:15 AM 65.7 °F - 58.1 °F 77% 29.96 in 10.0 mi ESE 4.6 mph - N/A   Scattered Clouds
4:35 AM 65.7 °F - 58.3 °F 77% 29.96 in 10.0 mi ESE 3.5 mph - N/A   Clear
4:55 AM 65.3 °F - 58.5 °F 78% 29.95 in 10.0 mi ESE 6.9 mph - N/A   Clear
5:15 AM 65.5 °F - 58.6 °F 79% 29.95 in 10.0 mi ESE 5.8 mph - N/A   Clear
5:35 AM 66.2 °F - 59.4 °F 79% 29.95 in 10.0 mi SE 5.8 mph - N/A   Clear
5:55 AM 66.2 °F - 59.9 °F 80% 29.95 in 10.0 mi East 3.5 mph - N/A   Clear
6:15 AM 65.7 °F - 59.9 °F 82% 29.97 in 10.0 mi Calm Calm - N/A   Clear
6:35 AM 65.8 °F - 60.1 °F 82% 29.98 in 10.0 mi Calm Calm - N/A   Scattered Clouds
6:55 AM 66.2 °F - 60.4 °F 82% 30.00 in 10.0 mi NNW 3.5 mph - N/A   Clear
7:15 AM 66.6 °F - 60.8 °F 82% 30.01 in 10.0 mi NNW 3.5 mph - N/A Thunderstorm Thunderstorm
7:35 AM 67.1 °F - 61.0 °F 81% 30.00 in 10.0 mi Calm Calm - N/A   Mostly Cloudy
7:55 AM 67.3 °F - 61.3 °F 81% 29.98 in 10.0 mi NE 3.5 mph - N/A   Mostly Cloudy
8:15 AM 68.2 °F - 61.9 °F 80% 29.95 in 10.0 mi SSE 11.5 mph - N/A   Scattered Clouds
8:35 AM 70.2 °F - 62.8 °F 77% 29.94 in 10.0 mi SE 8.1 mph - N/A   Clear
8:55 AM 72.3 °F - 63.5 °F 74% 29.96 in 10.0 mi SE 11.5 mph - N/A   Clear
9:15 AM 73.6 °F - 64.0 °F 72% 29.95 in 10.0 mi SSE 16.1 mph 20.7 mph N/A   Clear
9:35 AM 74.7 °F - 64.6 °F 71% 29.93 in 10.0 mi SSE 17.3 mph - N/A   Clear
9:55 AM 75.4 °F - 64.8 °F 69% 29.92 in 10.0 mi SSE 18.4 mph 21.9 mph N/A   Clear
10:15 AM 76.3 °F - 65.1 °F 68% 29.90 in 10.0 mi SSE 20.7 mph 24.2 mph N/A   Clear
10:35 AM 78.1 °F - 65.7 °F 65% 29.88 in 10.0 mi SSE 17.3 mph 27.6 mph N/A   Clear
10:55 AM 80.4 °F 82.6 °F 66.2 °F 62% 29.88 in 10.0 mi South 20.7 mph 25.3 mph N/A   Clear
11:15 AM 83.1 °F 85.4 °F 66.4 °F 57% 29.87 in 10.0 mi South 18.4 mph 23.0 mph N/A   Clear
11:35 AM 84.7 °F 87.4 °F 66.7 °F 55% 29.87 in 10.0 mi South 17.3 mph - N/A   Clear
11:55 AM 86.4 °F 89.0 °F 66.7 °F 52% 29.85 in 10.0 mi South 17.3 mph 24.2 mph N/A   Clear
12:15 PM 87.8 °F 90.4 °F 66.4 °F 49% 29.85 in 10.0 mi South 20.7 mph 24.2 mph N/A   Clear
12:35 PM 89.8 °F 92.1 °F 65.7 °F 45% 29.85 in 10.0 mi SSW 17.3 mph 23.0 mph N/A   Clear
12:55 PM 91.2 °F 93.3 °F 65.5 °F 42% 29.85 in 10.0 mi South 18.4 mph 23.0 mph N/A   Clear
1:15 PM 92.7 °F 95.8 °F 66.6 °F 42% 29.85 in 10.0 mi South 18.4 mph 24.2 mph N/A   Clear
1:35 PM 93.6 °F 95.5 °F 64.8 °F 38% 29.85 in 10.0 mi SSW 16.1 mph 27.6 mph N/A   Clear
1:55 PM 95.5 °F 98.4 °F 65.3 °F 37% 29.85 in 10.0 mi SW 12.7 mph 24.2 mph N/A   Clear
2:15 PM 96.1 °F 97.8 °F 63.1 °F 34% 29.83 in 10.0 mi South 17.3 mph 27.6 mph N/A   Clear
2:35 PM 96.8 °F 98.5 °F 63.0 °F 33% 29.82 in 10.0 mi SSW 18.4 mph 27.6 mph N/A   Clear
2:55 PM 97.7 °F 99.0 °F 62.6 °F 31% 29.81 in 10.0 mi SSW 17.3 mph 27.6 mph N/A   Clear
3:15 PM 98.6 °F 100.5 °F 62.8 °F 31% 29.79 in 10.0 mi South 19.6 mph 28.8 mph N/A   Clear
3:35 PM 99.7 °F 99.2 °F 57.7 °F 25% 29.79 in 10.0 mi South 20.7 mph 29.9 mph N/A   Clear
3:55 PM 100.4 °F 98.8 °F 55.0 °F 22% 29.78 in 10.0 mi South 17.3 mph 27.6 mph N/A   Clear
4:15 PM 100.2 °F 99.5 °F 57.4 °F 24% 29.78 in 10.0 mi South 18.4 mph 27.6 mph N/A   Clear
4:35 PM 99.7 °F 99.2 °F 57.9 °F 25% 29.77 in 10.0 mi South 17.3 mph 27.6 mph N/A   Clear
4:55 PM 99.5 °F 98.4 °F 57.2 °F 24% 29.77 in 10.0 mi South 20.7 mph 27.6 mph N/A   Clear
5:15 PM 99.3 °F 98.6 °F 57.2 °F 25% 29.78 in 10.0 mi South 17.3 mph 24.2 mph N/A   Clear
5:35 PM 96.8 °F 95.8 °F 57.4 °F 27% 29.77 in 10.0 mi South 16.1 mph 23.0 mph N/A   Clear
5:55 PM 95.9 °F 93.9 °F 54.7 °F 25% 29.77 in 10.0 mi South 15.0 mph 25.3 mph N/A   Clear
6:15 PM 95.4 °F 93.5 °F 55.2 °F 26% 29.76 in 10.0 mi South 16.1 mph 26.5 mph N/A   Clear
6:35 PM 94.6 °F 92.9 °F 55.6 °F 27% 29.75 in 10.0 mi South 13.8 mph 19.6 mph N/A   Clear
6:55 PM 94.3 °F 92.1 °F 54.7 °F 26% 29.76 in 10.0 mi South 16.1 mph 24.2 mph N/A   Clear
7:15 PM 94.1 °F 91.6 °F 53.6 °F 25% 29.77 in 10.0 mi South 12.7 mph 23.0 mph N/A   Clear
7:35 PM 93.4 °F 91.0 °F 53.8 °F 26% 29.79 in 10.0 mi SW 9.2 mph - N/A   Clear
7:55 PM 90.7 °F - 48.2 °F 23% 29.81 in 10.0 mi NW 8.1 mph 17.3 mph N/A   Clear
8:15 PM 86.5 °F - 50.9 °F 29% 29.82 in 10.0 mi NNW 3.5 mph - N/A   Clear
8:35 PM 85.5 °F - 52.7 °F 32% 29.82 in 10.0 mi Calm Calm - N/A   Clear
8:55 PM 81.7 °F 81.4 °F 56.5 °F 42% 29.81 in 10.0 mi Calm Calm - N/A   Clear
9:15 PM 78.4 °F - 57.0 °F 48% 29.82 in 10.0 mi SE 4.6 mph - N/A   Clear
9:35 PM 79.2 °F - 54.9 °F 43% 29.83 in 10.0 mi SE 5.8 mph - N/A   Clear
9:55 PM 80.1 °F 80.1 °F 54.5 °F 41% 29.85 in 10.0 mi Calm Calm - N/A   Clear
10:15 PM 79.5 °F - 54.7 °F 42% 29.85 in 10.0 mi Calm Calm - N/A   Clear
10:35 PM 78.8 °F - 55.9 °F 45% 29.85 in 10.0 mi ESE 3.5 mph - N/A   Clear
10:55 PM 77.5 °F - 56.5 °F 48% 29.86 in 10.0 mi East 3.5 mph - N/A   Clear
11:15 PM 77.0 °F - 57.6 °F 51% 29.86 in 10.0 mi SSW 3.5 mph - N/A   Clear
11:35 PM 83.5 °F 83.1 °F 57.9 °F 42% 29.86 in 10.0 mi South 9.2 mph - N/A   Scattered Clouds
11:55 PM 81.1 °F 81.5 °F 59.0 °F 47% 29.86 in 10.0 mi South 6.9 mph - N/A   Scattered Clouds